KD4TJG Weather Reports


Display with metric or nautical units.
time (UTC)temp
F
wind
direction
speed
MPH
gust
MPH
rain 1hr
in
rain 24hr
in
rain mn
in
humidity
%
barometer
mb
20260504044023 42 285 0.0 2.0 0.00 0.00 0.00 85 1016.6
20260504043712 43 285 0.0 0.0 0.00 0.00 0.00 84 1018.6
20260504043521 42 0 0.0 2.0 0.00 0.00 0.00 84 1016.5
20260504043039 42 0 0.0 2.0 0.00 0.00 0.00 85 1016.4
20260504042705 43 284 0.0 1.0 0.00 0.00 0.00 84 1018.4
20260504042521 42 258 0.0 2.0 0.00 0.00 0.00 84 1016.3
20260504042021 42 0 0.0 2.0 0.00 0.00 0.00 84 1016.3
20260504041707 42 207 0.0 1.0 0.00 0.00 0.00 84 1018.3
20260504041545 42 0 0.0 0.0 0.00 0.00 0.00 84 1016.3
20260504041023 42 0 0.0 1.0 0.00 0.00 0.00 84 1016.3
20260504040703 43 205 0.0 0.0 0.00 0.00 0.00 84 1018.4
20260504040522 42 0 0.0 1.0 0.00 0.00 0.00 84 1016.3
20260504040047 42 205 0.0 0.0 0.00 0.00 0.00 84 1016.4
20260504035522 42 0 0.0 0.0 0.00 0.00 0.00 84 1016.3
20260504035021 42 0 0.0 1.0 0.00 0.00 0.00 84 1016.4
20260504034547 42 0 0.0 1.0 0.00 0.00 0.00 83 1016.4
20260504034502 43 205 0.0 0.0 0.00 0.00 0.00 83 1018.4
20260504034021 42 0 0.0 1.0 0.00 0.00 0.00 83 1016.4
20260504033521 43 0 0.0 1.0 0.00 0.00 0.00 83 1016.4
20260504033041 43 0 0.0 1.0 0.00 0.00 0.00 83 1016.4
20260504032521 43 0 0.0 1.0 0.00 0.00 0.00 83 1016.5
20260504032456 43 205 0.0 0.0 0.00 0.00 0.00 83 1018.5
20260504032024 43 0 0.0 0.0 0.00 0.00 0.00 83 1016.4
20260504031543 43 0 0.0 1.0 0.00 0.00 0.00 82 1016.4
20260504031501 44 205 0.0 0.0 0.00 0.00 0.00 82 1018.4
20260504031021 43 0 0.0 1.0 0.00 0.00 0.00 82 1016.4
20260504030521 43 0 0.0 1.0 0.00 0.00 0.00 81 1016.4
20260504030443 44 205 0.0 0.0 0.00 0.00 0.00 81 1018.5
20260504030040 44 0 0.0 0.0 0.00 0.00 0.00 81 1016.4
20260504025521 44 0 0.0 0.0 0.00 0.00 0.00 81 1016.5
20260504025021 44 0 0.0 0.0 0.00 0.00 0.00 81 1016.5
20260504024537 44 0 0.0 0.0 0.00 0.00 0.00 81 1016.4
20260504024340 44 205 0.0 0.0 0.00 0.00 0.00 80 1018.4
20260504024021 44 0 0.0 1.0 0.00 0.00 0.00 81 1016.4
20260504023522 44 0 0.0 1.0 0.00 0.00 0.00 80 1016.4
20260504023318 45 205 0.0 0.0 0.00 0.00 0.00 80 1018.4
20260504023044 44 0 0.0 1.0 0.00 0.00 0.00 79 1016.4
20260504022522 45 0 0.0 0.0 0.00 0.00 0.00 79 1016.3
20260504022245 45 205 0.0 0.0 0.00 0.00 0.00 79 1018.3
20260504022021 45 0 0.0 0.0 0.00 0.00 0.00 78 1016.2
20260504021541 45 0 0.0 1.0 0.00 0.00 0.00 78 1016.2
20260504021226 46 205 0.0 0.0 0.00 0.00 0.00 78 1018.2
20260504021021 45 0 0.0 1.0 0.00 0.00 0.00 78 1016.2
20260504020521 46 0 0.0 1.0 0.00 0.00 0.00 77 1016.1
20260504020153 46 205 0.0 0.0 0.00 0.00 0.00 77 1018.1
20260504020042 46 0 0.0 1.0 0.00 0.00 0.00 76 1016.1
20260504015521 46 0 0.0 0.0 0.00 0.00 0.00 76 1016.0
20260504015130 47 205 0.0 0.0 0.00 0.00 0.00 75 1018.0
20260504015022 46 0 0.0 0.0 0.00 0.00 0.00 75 1016.0
20260504014538 47 0 0.0 0.0 0.00 0.00 0.00 74 1016.0
20260504014102 47 205 0.0 0.0 0.00 0.00 0.00 74 1017.9
20260504014021 47 0 0.0 0.0 0.00 0.00 0.00 74 1015.8
20260504013521 47 0 0.0 0.0 0.00 0.00 0.00 73 1015.8
20260504013116 48 205 0.0 0.0 0.00 0.00 0.00 72 1017.8
20260504013049 48 0 0.0 0.0 0.00 0.00 0.00 72 1015.8
20260504012521 48 0 0.0 1.0 0.00 0.00 0.00 71 1015.7
20260504012103 49 205 0.0 0.0 0.00 0.00 0.00 70 1017.7
20260504012021 48 0 0.0 1.0 0.00 0.00 0.00 70 1015.8
20260504011542 49 0 0.0 0.0 0.00 0.00 0.00 70 1015.7
20260504011102 49 205 0.0 0.0 0.00 0.00 0.00 69 1017.8
20260504011020 49 0 0.0 0.0 0.00 0.00 0.00 69 1015.6
20260504010520 49 0 0.0 0.0 0.00 0.00 0.00 68 1015.7
20260504010116 50 205 0.0 0.0 0.00 0.00 0.00 67 1017.8
20260504010042 50 0 0.0 0.0 0.00 0.00 0.00 67 1015.6
20260504005522 50 0 0.0 0.0 0.00 0.00 0.00 66 1015.7
20260504005116 51 205 0.0 0.0 0.00 0.00 0.00 65 1017.7
20260504005022 51 0 0.0 0.0 0.00 0.00 0.00 65 1015.6
20260504004542 51 0 0.0 1.0 0.00 0.00 0.00 63 1015.7
20260504004114 52 205 0.0 0.0 0.00 0.00 0.00 62 1017.6
20260504004022 52 0 0.0 1.0 0.00 0.00 0.00 62 1015.5
20260504003521 52 0 0.0 1.0 0.00 0.00 0.00 60 1015.4
20260504003049 54 205 0.0 0.0 0.00 0.00 0.00 59 1017.5
20260504003041 53 0 0.0 1.0 0.00 0.00 0.00 59 1015.4
20260504002521 54 0 0.0 1.0 0.00 0.00 0.00 58 1015.2
20260504002113 55 205 0.0 0.0 0.00 0.00 0.00 57 1017.2
20260504002021 54 0 0.0 1.0 0.00 0.00 0.00 56 1015.4
20260504001543 55 0 0.0 1.0 0.00 0.00 0.00 55 1015.2
20260504001048 56 205 0.0 0.0 0.00 0.00 0.00 54 1017.2
20260504001021 56 0 0.0 1.0 0.00 0.00 0.00 54 1015.2
20260504000526 57 0 0.0 2.0 0.00 0.00 0.00 52 1015.0
20260504000044 58 0 0.0 2.0 0.00 0.00 0.00 49 1015.1
20260503235521 59 205 0.0 2.0 0.00 0.00 0.00 46 1015.0
20260503235029 61 205 0.0 0.0 0.00 0.00 0.00 44 1017.1
20260503235021 60 0 0.0 3.0 0.00 0.00 0.00 44 1015.1
20260503234543 61 0 1.0 3.0 0.00 0.00 0.00 39 1015.1
20260503234033 62 174 1.0 7.0 0.00 0.00 0.00 37 1017.1
20260503234021 62 191 1.0 3.0 0.00 0.00 0.00 37 1015.1
20260503233521 62 175 1.0 9.0 0.00 0.00 0.00 36 1015.2
20260503233042 63 190 2.0 8.0 0.00 0.00 0.00 36 1017.2
20260503233040 62 197 3.0 9.0 0.00 0.00 0.00 35 1015.3
20260503232520 63 185 2.0 7.0 0.00 0.00 0.00 35 1015.2
20260503232021 63 185 3.0 9.0 0.00 0.00 0.00 34 1015.2
20260503231540 63 207 4.0 9.0 0.00 0.00 0.00 33 1015.0
20260503231022 63 210 3.0 8.0 0.00 0.00 0.00 33 1015.2
20260503230926 64 199 2.0 7.0 0.00 0.00 0.00 33 1017.2
20260503230522 64 203 2.0 8.0 0.00 0.00 0.00 32 1015.1
20260503230042 64 254 2.0 8.0 0.00 0.00 0.00 32 1015.2
20260503225917 64 186 3.0 7.0 0.00 0.00 0.00 31 1017.1
20260503225521 64 219 3.0 8.0 0.00 0.00 0.00 31 1015.2
20260503225021 64 187 2.0 7.0 0.00 0.00 0.00 31 1015.2
20260503224921 65 185 2.0 6.0 0.00 0.00 0.00 32 1017.2
20260503224535 64 189 3.0 7.0 0.00 0.00 0.00 30 1015.2
20260503224021 65 185 1.0 4.0 0.00 0.00 0.00 31 1015.3
20260503223927 65 208 1.0 9.0 0.00 0.00 0.00 30 1017.3
20260503223518 65 0 1.0 6.0 0.00 0.00 0.00 30 1015.2
20260503223035 65 187 2.0 10.0 0.00 0.00 0.00 28 1015.3
20260503222924 66 216 4.0 9.0 0.00 0.00 0.00 27 1017.3
20260503222521 65 227 5.0 10.0 0.00 0.00 0.00 29 1015.4
20260503222021 66 193 3.0 9.0 0.00 0.00 0.00 28 1015.5
20260503221929 66 202 2.0 7.0 0.00 0.00 0.00 30 1017.5
20260503221556 66 156 2.0 8.0 0.00 0.00 0.00 30 1015.5
20260503221022 66 253 3.0 8.0 0.00 0.00 0.00 28 1015.5
20260503220932 66 213 3.0 6.0 0.00 0.00 0.00 28 1017.6
20260503220521 66 120 4.0 8.0 0.00 0.00 0.00 29 1015.6
20260503220043 66 143 3.0 10.0 0.00 0.00 0.00 27 1015.6
20260503215941 67 106 3.0 8.0 0.00 0.00 0.00 28 1017.7
20260503215521 66 242 3.0 10.0 0.00 0.00 0.00 26 1015.6
20260503215020 66 197 4.0 10.0 0.00 0.00 0.00 28 1015.6
20260503215002 67 193 1.0 8.0 0.00 0.00 0.00 28 1017.7
20260503214542 66 0 1.0 6.0 0.00 0.00 0.00 29 1015.7
20260503214024 66 277 2.0 9.0 0.00 0.00 0.00 27 1015.8
20260503213940 66 203 3.0 8.0 0.00 0.00 0.00 27 1017.8
20260503213520 66 185 2.0 9.0 0.00 0.00 0.00 26 1015.8
20260503213045 67 194 3.0 9.0 0.00 0.00 0.00 28 1015.9
20260503212935 67 200 3.0 8.0 0.00 0.00 0.00 29 1017.9
20260503212523 67 278 3.0 10.0 0.00 0.00 0.00 27 1015.9
20260503212022 66 249 3.0 10.0 0.00 0.00 0.00 27 1015.8
20260503211912 67 215 3.0 8.0 0.00 0.00 0.00 26 1017.9
20260503211540 67 311 2.0 9.0 0.00 0.00 0.00 27 1015.9
20260503211021 66 330 3.0 8.0 0.00 0.00 0.00 27 1015.9
20260503210521 66 234 4.0 8.0 0.00 0.00 0.00 27 1015.8
20260503210039 66 268 1.0 9.0 0.00 0.00 0.00 29 1015.9
20260503205724 66 355 2.0 10.0 0.00 0.00 0.00 27 1018.0
20260503205521 66 326 3.0 9.0 0.00 0.00 0.00 30 1015.9
20260503205021 65 282 2.0 11.0 0.00 0.00 0.00 29 1016.0
20260503204727 66 23 3.0 10.0 0.00 0.00 0.00 28 1018.1
20260503204534 66 342 4.0 11.0 0.00 0.00 0.00 28 1016.1
20260503204020 66 195 2.0 9.0 0.00 0.00 0.00 28 1016.2
20260503203524 66 176 3.0 9.0 0.00 0.00 0.00 28 1016.1
20260503203044 66 244 3.0 9.0 0.00 0.00 0.00 29 1016.2
20260503202554 67 191 3.0 12.0 0.00 0.00 0.00 30 1018.2
20260503202523 66 199 3.0 9.0 0.00 0.00 0.00 30 1016.2
20260503202021 66 255 3.0 9.0 0.00 0.00 0.00 29 1016.3
20260503201558 66 301 3.0 12.0 0.00 0.00 0.00 28 1018.4
20260503201542 65 257 3.0 15.0 0.00 0.00 0.00 27 1016.3
20260503201020 66 251 3.0 15.0 0.00 0.00 0.00 28 1016.6
20260503200553 67 210 3.0 9.0 0.00 0.00 0.00 29 1018.6
20260503200520 66 160 3.0 11.0 0.00 0.00 0.00 31 1016.5
20260503200042 66 332 4.0 11.0 0.00 0.00 0.00 29 1016.5
20260503195616 66 334 3.0 11.0 0.00 0.00 0.00 29 1018.7
20260503195520 66 307 3.0 10.0 0.00 0.00 0.00 29 1016.7
20260503195020 66 1 4.0 12.0 0.00 0.00 0.00 29 1016.8
20260503194636 66 53 3.0 11.0 0.00 0.00 0.00 29 1018.9
20260503194543 65 331 3.0 12.0 0.00 0.00 0.00 30 1016.8
20260503194021 65 196 4.0 12.0 0.00 0.00 0.00 30 1016.8
20260503193520 65 154 3.0 10.0 0.00 0.00 0.00 27 1016.7
20260503193046 66 176 4.0 10.0 0.00 0.00 0.00 28 1017.0
20260503192542 66 222 2.0 8.0 0.00 0.00 0.00 30 1019.0
20260503192521 66 220 2.0 7.0 0.00 0.00 0.00 30 1017.0
20260503192018 65 237 2.0 7.0 0.00 0.00 0.00 28 1017.1
20260503191601 65 0 2.0 11.0 0.00 0.00 0.00 28 1017.0
20260503191533 65 85 3.0 8.0 0.00 0.00 0.00 28 1019.0
20260503191021 65 237 2.0 11.0 0.00 0.00 0.00 29 1017.1
20260503190544 65 239 3.0 8.0 0.00 0.00 0.00 29 1019.2
20260503190520 64 194 3.0 11.0 0.00 0.00 0.00 29 1017.2
20260503190035 64 260 2.0 11.0 0.00 0.00 0.00 29 1017.4
20260503185521 65 297 3.0 9.0 0.00 0.00 0.00 32 1017.4
20260503185518 66 137 1.0 9.0 0.00 0.00 0.00 32 1019.4
20260503185020 64 330 1.0 10.0 0.00 0.00 0.00 30 1017.4
20260503184541 64 210 3.0 10.0 0.00 0.00 0.00 30 1017.6
20260503184022 64 222 3.0 8.0 0.00 0.00 0.00 30 1017.7
20260503183525 63 347 4.0 14.0 0.00 0.00 0.00 30 1017.7
20260503183338 64 307 4.0 11.0 0.00 0.00 0.00 32 1019.7
20260503183041 64 359 6.0 14.0 0.00 0.00 0.00 33 1017.7
20260503182520 64 192 3.0 11.0 0.00 0.00 0.00 31 1017.8
20260503182342 64 287 2.0 8.0 0.00 0.00 0.00 31 1020.0
20260503182021 64 233 1.0 12.0 0.00 0.00 0.00 34 1018.0
20260503181548 63 151 3.0 12.0 0.00 0.00 0.00 30 1018.1
20260503181405 63 212 3.0 9.0 0.00 0.00 0.00 29 1020.2
20260503181021 63 326 3.0 11.0 0.00 0.00 0.00 31 1018.2
20260503180521 62 270 2.0 11.0 0.00 0.00 0.00 33 1018.2
20260503180042 63 235 5.0 14.0 0.00 0.00 0.00 32 1018.3
20260503175521 62 4 5.0 14.0 0.00 0.00 0.00 32 1018.3
20260503175255 63 341 5.0 13.0 0.00 0.00 0.00 30 1020.4
20260503175021 63 268 7.0 14.0 0.00 0.00 0.00 32 1018.4
20260503174544 62 3 3.0 10.0 0.00 0.00 0.00 34 1018.4
20260503174021 62 357 1.0 8.0 0.00 0.00 0.00 32 1018.3
20260503173521 61 233 3.0 9.0 0.00 0.00 0.00 35 1018.4
20260503173124 62 12 2.0 8.0 0.00 0.00 0.00 30 1020.4
20260503173041 62 69 2.0 9.0 0.00 0.00 0.00 30 1018.5
20260503172520 62 237 1.0 10.0 0.00 0.00 0.00 36 1018.4
20260503172104 61 163 3.0 9.0 0.00 0.00 0.00 32 1020.4
20260503172018 60 126 2.0 10.0 0.00 0.00 0.00 32 1018.5
20260503171541 60 225 2.0 9.0 0.00 0.00 0.00 32 1018.6
20260503171020 61 290 2.0 9.0 0.00 0.00 0.00 34 1018.8
20260503170524 61 0 3.0 15.0 0.00 0.00 0.00 36 1018.9
20260503150546 56 281 3.0 8.0 0.00 0.00 0.00 45 1022.0
20260503150521 55 318 3.0 9.0 0.00 0.00 0.00 45 1020.0
20260503140241 52 206 1.0 9.0 0.00 0.00 0.00 53 1022.0
20260503131147 50 253 1.0 8.0 0.00 0.00 0.00 59 1021.9
20260503131017 50 309 1.0 9.0 0.00 0.00 0.00 59 1019.8
20260503130520 50 342 2.0 9.0 0.00 0.00 0.00 61 1019.9
20260503130151 50 316 2.0 8.0 0.00 0.00 0.00 62 1021.9
20260503110522 32 0 0.0 1.0 0.00 0.00 0.00 90 1018.8
20260503090255 34 234 0.0 0.0 0.00 0.00 0.00 89 1019.2
20260503081540 34 0 0.0 0.0 0.00 0.00 0.00 89 1016.7
20260503081121 34 234 0.0 0.0 0.00 0.00 0.00 89 1018.7
20260503081022 34 0 0.0 0.0 0.00 0.00 0.00 89 1016.7
20260503080522 34 0 0.0 1.0 0.00 0.00 0.00 89 1016.6
20260503080120 35 234 0.0 0.0 0.00 0.00 0.00 89 1018.7
20260503072526 35 0 0.0 0.0 0.00 0.00 0.00 89 1016.3
20260503072109 35 234 0.0 0.0 0.00 0.00 0.00 89 1018.1
20260503072022 35 0 0.0 0.0 0.00 0.00 0.00 89 1016.1
20260503071540 35 0 0.0 0.0 0.00 0.00 0.00 89 1016.1
20260503071059 36 234 0.0 0.0 0.00 0.00 0.00 89 1018.2
20260503071022 35 0 0.0 0.0 0.00 0.00 0.00 89 1016.0
20260503070522 35 0 0.0 0.0 0.00 0.00 0.00 89 1016.1
20260503070106 36 234 0.0 0.0 0.00 0.00 0.00 89 1018.1
20260503055119 37 234 0.0 0.0 0.00 0.00 0.00 89 1017.9
20260503055021 36 0 0.0 1.0 0.00 0.00 0.00 89 1015.9
20260503054558 36 0 0.0 1.0 0.00 0.00 0.00 89 1015.9
20260503054111 37 234 0.0 0.0 0.00 0.00 0.00 89 1018.0
20260503054019 36 0 0.0 0.0 0.00 0.00 0.00 89 1015.9
20260503053520 36 0 0.0 1.0 0.00 0.00 0.00 88 1015.9
20260503053126 37 234 0.0 0.0 0.00 0.00 0.00 89 1017.9
20260503053040 37 0 0.0 1.0 0.00 0.00 0.00 89 1015.9
20260503052522 37 234 0.0 1.0 0.00 0.00 0.00 89 1015.8
20260503052133 38 234 0.0 0.0 0.00 0.00 0.00 88 1017.9
20260503052022 37 0 0.0 1.0 0.00 0.00 0.00 88 1015.9
20260503051535 37 0 0.0 1.0 0.00 0.00 0.00 88 1015.9
20260503051128 38 234 0.0 0.0 0.00 0.00 0.00 88 1017.9
20260503051022 37 0 0.0 1.0 0.00 0.00 0.00 88 1015.8
20260503050522 37 0 0.0 1.0 0.00 0.00 0.00 88 1015.8
20260503050130 38 234 0.0 0.0 0.00 0.00 0.00 88 1017.8
20260503050036 37 0 0.0 1.0 0.00 0.00 0.00 88 1015.8
20260503045520 37 234 0.0 1.0 0.00 0.00 0.00 88 1015.6
20260503045058 38 234 0.0 0.0 0.00 0.00 0.00 88 1017.7
20260503045019 38 0 0.0 1.0 0.00 0.00 0.00 88 1015.5
20260503044545 38 0 0.0 1.0 0.00 0.00 0.00 88 1015.6